• In Hungary
  • List of Countries
  • For 7 days
  • Water Temperature
  • Satellite Maps
  • Weather Map
  • News
  • Weather Widgets
  • user-avatar
    Login

    Hourly Weather Zlockie

    Today, 22 January, Monday

    Time Temperature Precipitation Wind Pressure Humidity
    00:00 -5°C° 0.3 mm 3 mps 713 mmHg 92%
    01:00 -7°C° 0 mm 4 mps 713 mmHg 92%
    02:00 -7°C° 0.1 mm 4 mps 713 mmHg 92%
    03:00 -6°C° 0.1 mm 3 mps 713 mmHg 91%
    04:00 -6°C° 0.1 mm 3 mps 714 mmHg 90%
    05:00 -7°C° 0 mm 3 mps 714 mmHg 91%
    06:00 -6°C° 0 mm 2 mps 714 mmHg 91%
    07:00 -6°C° 0 mm 2 mps 714 mmHg 92%
    08:00 -6°C° 0 mm 2 mps 714 mmHg 88%
    09:00 -5°C° 0 mm 2 mps 714 mmHg 84%
    10:00 -5°C° 0 mm 2 mps 714 mmHg 80%
    11:00 -4°C° 0 mm 2 mps 714 mmHg 78%
    12:00 -4°C° 0 mm 2 mps 714 mmHg 76%
    13:00 -2°C° 0 mm 1 mps 714 mmHg 72%
    14:00 -2°C° 0 mm 1 mps 714 mmHg 76%
    15:00 -3°C° 0 mm 1 mps 714 mmHg 80%
    16:00 -4°C° 0 mm 1 mps 714 mmHg 84%
    17:00 -4°C° 0 mm 1 mps 714 mmHg 86%
    18:00 -6°C° 0 mm 1 mps 714 mmHg 88%
    19:00 -7°C° 0 mm 1 mps 714 mmHg 90%
    20:00 -7°C° 0 mm 1 mps 714 mmHg 91%
    21:00 -7°C° 0 mm 1 mps 714 mmHg 91%
    22:00 -7°C° 0 mm 1 mps 714 mmHg 91%
    23:00 -7°C° 0 mm 1 mps 714 mmHg 90%

    Tomorrow, 23 January, Tuesday

    Time Temperature Precipitation Wind Pressure Humidity
    00:00 -7°C° 0 mm 1 mps 714 mmHg 89%
    01:00 -7°C° 0 mm 1 mps 715 mmHg 88%
    02:00 -7°C° 0 mm 1 mps 715 mmHg 88%
    03:00 -6°C° 0 mm 1 mps 715 mmHg 87%
    04:00 -6°C° 0 mm 1 mps 715 mmHg 86%
    05:00 -6°C° 0 mm 1 mps 716 mmHg 87%
    06:00 -6°C° 0 mm 1 mps 716 mmHg 87%
    07:00 -7°C° 0 mm 1 mps 716 mmHg 88%
    08:00 -4°C° 0 mm 1 mps 717 mmHg 84%
    09:00 -3°C° 0 mm 1 mps 718 mmHg 79%
    10:00 -2°C° 0 mm 1 mps 719 mmHg 75%
    11:00 -1°C° 0 mm 1 mps 719 mmHg 73%
    12:00 0°C° 0 mm 1 mps 719 mmHg 71%
    13:00 +1°C° 0 mm 1 mps 720 mmHg 68%
    14:00 0°C° 0 mm 1 mps 720 mmHg 73%
    15:00 -1°C° 0 mm 1 mps 721 mmHg 78%
    16:00 -2°C° 0 mm 1 mps 721 mmHg 83%
    17:00 -2°C° 0 mm 1 mps 721 mmHg 85%
    18:00 -3°C° 0 mm 1 mps 722 mmHg 87%
    19:00 -3°C° 0 mm 1 mps 722 mmHg 88%
    20:00 -3°C° 0 mm 1 mps 722 mmHg 89%
    21:00 -3°C° 0 mm 1 mps 723 mmHg 89%
    22:00 -3°C° 0 mm 1 mps 723 mmHg 89%
    23:00 -3°C° 0 mm 1 mps 723 mmHg 90%

    Day after tomorrow, 24 January, Wednesday

    Time Temperature Precipitation Wind Pressure Humidity
    00:00 -4°C° 0 mm 1 mps 723 mmHg 90%
    01:00 -6°C° 0 mm 2 mps 723 mmHg 91%
    02:00 -6°C° 0 mm 2 mps 723 mmHg 91%
    03:00 -6°C° 0 mm 2 mps 723 mmHg 92%
    04:00 -6°C° 0 mm 2 mps 723 mmHg 92%
    05:00 -6°C° 0 mm 2 mps 724 mmHg 92%
    06:00 -6°C° 0 mm 2 mps 724 mmHg 92%
    07:00 -7°C° 0 mm 3 mps 724 mmHg 91%
    08:00 -6°C° 0 mm 3 mps 724 mmHg 89%
    09:00 -4°C° 0 mm 3 mps 724 mmHg 86%
    10:00 -3°C° 0 mm 4 mps 725 mmHg 83%
    11:00 -3°C° 0 mm 4 mps 724 mmHg 83%
    12:00 -2°C° 0 mm 4 mps 724 mmHg 83%
    13:00 -2°C° 0 mm 4 mps 724 mmHg 82%
    14:00 -2°C° 0 mm 4 mps 724 mmHg 84%
    15:00 -2°C° 0 mm 4 mps 724 mmHg 86%
    16:00 -3°C° 0 mm 4 mps 724 mmHg 88%
    17:00 -3°C° 0 mm 4 mps 724 mmHg 89%
    18:00 -3°C° 0 mm 4 mps 724 mmHg 89%
    19:00 -3°C° 0 mm 4 mps 724 mmHg 90%
    20:00 -3°C° 0 mm 4 mps 724 mmHg 90%
    21:00 -3°C° 0 mm 4 mps 724 mmHg 91%
    22:00 -3°C° 0 mm 4 mps 724 mmHg 91%
    23:00 -3°C° 0 mm 4 mps 724 mmHg 91%

    25 January, Thursday

    Time Temperature Precipitation Wind Pressure Humidity
    00:00 -3°C° 0 mm 4 mps 724 mmHg 91%
    01:00 -3°C° 0 mm 4 mps 723 mmHg 90%
    02:00 -3°C° 0 mm 4 mps 723 mmHg 90%
    03:00 -3°C° 0 mm 4 mps 723 mmHg 90%
    04:00 -3°C° 0 mm 4 mps 722 mmHg 90%
    05:00 -3°C° 0 mm 4 mps 722 mmHg 89%
    06:00 -3°C° 0 mm 4 mps 722 mmHg 89%
    07:00 -3°C° 0 mm 4 mps 722 mmHg 88%
    08:00 -3°C° 0 mm 4 mps 722 mmHg 86%
    09:00 -2°C° 0 mm 5 mps 722 mmHg 84%
    10:00 -2°C° 0 mm 5 mps 721 mmHg 82%
    11:00 -1°C° 0 mm 4 mps 721 mmHg 80%
    12:00 0°C° 0 mm 4 mps 721 mmHg 79%
    13:00 0°C° 0 mm 4 mps 721 mmHg 77%
    14:00 -1°C° 0 mm 4 mps 720 mmHg 78%
    15:00 -1°C° 0 mm 4 mps 720 mmHg 79%
    16:00 -2°C° 0 mm 4 mps 719 mmHg 80%
    17:00 -2°C° 0 mm 4 mps 719 mmHg 81%
    18:00 -3°C° 0 mm 4 mps 719 mmHg 81%
    19:00 -3°C° 0 mm 4 mps 719 mmHg 82%
    20:00 -4°C° 0 mm 4 mps 719 mmHg 82%
    21:00 -4°C° 0 mm 4 mps 719 mmHg 82%
    22:00 -4°C° 0 mm 4 mps 719 mmHg 82%
    23:00 -4°C° 0 mm 4 mps 718 mmHg 82%

    26 January, Friday

    Time Temperature Precipitation Wind Pressure Humidity
    00:00 -3°C° 0 mm 4 mps 718 mmHg 82%
    01:00 -2°C° 0 mm 3 mps 718 mmHg 83%
    02:00 -2°C° 0 mm 3 mps 718 mmHg 83%
    03:00 -2°C° 0 mm 3 mps 717 mmHg 84%
    04:00 -2°C° 0 mm 3 mps 717 mmHg 84%
    05:00 -2°C° 0 mm 3 mps 717 mmHg 84%
    06:00 -2°C° 0 mm 3 mps 717 mmHg 83%
    07:00 -2°C° 0 mm 3 mps 717 mmHg 83%
    08:00 -1°C° 0 mm 3 mps 717 mmHg 82%
    09:00 -1°C° 0 mm 3 mps 717 mmHg 81%
    10:00 -1°C° 0 mm 4 mps 717 mmHg 80%
    11:00 0°C° 0 mm 3 mps 717 mmHg 79%
    12:00 +1°C° 0 mm 3 mps 717 mmHg 79%
    13:00 +1°C° 0 mm 3 mps 717 mmHg 79%
    14:00 +1°C° 0 mm 3 mps 717 mmHg 81%
    15:00 0°C° 0 mm 3 mps 717 mmHg 83%
    16:00 -1°C° 0 mm 3 mps 717 mmHg 85%
    17:00 -1°C° 0 mm 3 mps 717 mmHg 85%
    18:00 -1°C° 0 mm 3 mps 717 mmHg 86%
    19:00 -1°C° 0 mm 3 mps 717 mmHg 86%
    20:00 -1°C° 0 mm 3 mps 718 mmHg 86%
    21:00 -1°C° 0 mm 3 mps 718 mmHg 86%
    22:00 -1°C° 0 mm 3 mps 718 mmHg 86%
    23:00 -1°C° 0 mm 3 mps 718 mmHg 86%

    27 January, Saturday

    Time Temperature Precipitation Wind Pressure Humidity
    00:00 -1°C° 0 mm 3 mps 718 mmHg 86%
    01:00 -1°C° 0 mm 3 mps 718 mmHg 87%
    02:00 -1°C° 0 mm 2 mps 718 mmHg 87%
    03:00 -2°C° 0 mm 2 mps 718 mmHg 88%
    04:00 -2°C° 0 mm 2 mps 718 mmHg 88%
    05:00 -2°C° 0 mm 2 mps 719 mmHg 89%
    06:00 -2°C° 0 mm 2 mps 719 mmHg 89%
    07:00 -2°C° 0 mm 2 mps 719 mmHg 89%
    08:00 -1°C° 0 mm 2 mps 720 mmHg 87%
    09:00 +1°C° 0 mm 2 mps 720 mmHg 85%
    10:00 +2°C° 0 mm 2 mps 721 mmHg 83%
    11:00 +2°C° 0 mm 2 mps 721 mmHg 82%
    12:00 +4°C° 0 mm 1 mps 722 mmHg 80%
    13:00 +5°C° 0 mm 1 mps 722 mmHg 79%
    14:00 +4°C° 0 mm 1 mps 722 mmHg 83%
    15:00 +3°C° 0 mm 1 mps 723 mmHg 87%
    16:00 +2°C° 0 mm 1 mps 723 mmHg 90%
    17:00 +2°C° 0 mm 1 mps 723 mmHg 91%
    18:00 +1°C° 0 mm 1 mps 723 mmHg 91%
    19:00 0°C° 0 mm 0 mps 724 mmHg 92%
    20:00 +1°C° 0 mm 1 mps 724 mmHg 92%
    21:00 0°C° 0 mm 1 mps 724 mmHg 93%
    22:00 0°C° 0 mm 1 mps 724 mmHg 93%
    23:00 +1°C° 0 mm 1 mps 725 mmHg 93%
    Show more